AirNav   Air Wisconsin Up To $57,000 Bonus
 
 1363 users online  

05IL Classic Landings Airport
Bonfield, Illinois, USA

GOING TO BONFIELD?


FAA INFORMATION EFFECTIVE 01 DECEMBER 2022

Location

FAA Identifier: 05IL
Lat/Long: 41-09-36.0000N 088-01-00.0000W
41-09.600000N 088-01.000000W
41.1600000,-88.0166667
(estimated)
Elevation: 635 ft. / 194 m (estimated)
Variation: 01W (1990)
From city: 2 miles NE of BONFIELD, IL
Time zone: UTC -6 (UTC -5 during Daylight Saving Time)
Zip code: 60913

Airport Operations

Airport use: Private use. Permission required prior to landing
Activation date: 03/1993
Control tower: no
ARTCC: CHICAGO CENTER
FSS: KANKAKEE FLIGHT SERVICE STATION
Attendance: UNATNDD
Wind indicator: yes
Segmented circle: no

Airport Communications

WX AWOS-3 at IKK (9 nm SE): 128.475 (815-939-4044)

Nearby radio navigation aids

VOR radial/distance  VOR name  Freq  Var
EONr235/12.1PEOTONE VORTAC113.2002E
JOTr148/26.9JOLIET VOR/DME112.3002E
CGTr222/29.0CHICAGO HEIGHTS VORTAC114.2002E
RBSr009/35.3ROBERTS VOR/DME116.8002E
PNTr055/38.3PONTIAC VOR/DME109.6003E

 
NDB name  Hdg/Dist  Freq  Var  ID
LUKOW329/9.927200EIK .. -.-

Airport Services

Runway Information

Runway 10/28

Dimensions: 3200 x 70 ft. / 975 x 21 m
Surface: turf
RUNWAY 10  RUNWAY 28
Traffic pattern: leftleft
Displaced threshold: 700 ft.675 ft.
Obstructions: none50 ft. trees, 75 ft. from runway

Airport Ownership and Management from official FAA records

Ownership: Privately-owned
Owner: CLASSIC LANDINGS COMM ASSOC
7300 LANDING LANE
BONFIELD, IL 60913
Phone 815-939-3399
Manager: J. D. SLACK
7300 LANDING LANE
BONFIELD, IL 60913
Phone 815-939-3399

Additional Remarks

FOR CD CTC CHICAGO ARTCC AT 630-906-8921.

Instrument Procedures

There are no published instrument procedures at 05IL.

Some nearby airports with instrument procedures:

KIKK - Greater Kankakee Airport (9 nm SE)
C56 - Bult Field Airport (20 nm NE)
C09 - Morris Municipal Airport-James R. Washburn Field (24 nm NW)
KLOT - Lewis University Airport (27 nm N)
KPNT - Pontiac Municipal Airport (31 nm SW)
 
Loc | Ops | Rwys | IFR | FBO | Links
Com | Nav | Svcs | Stats | Notes
Area around 05IL (Classic Landings Airport)
 
Road maps at: MapQuest Bing Google
 
Aerial photo
No photo
 
Sectional chart

 
Airport distance calculator
Flying to Classic Landings Airport? Find the distance to fly.

From to 05IL

Sunrise and sunset
Times for 07-Dec-2022
 Local
(UTC-6)
 Zulu
(UTC)
Morning civil twilight06:3412:34
Sunrise07:0513:05
Sunset16:2222:22
Evening civil twilight16:5322:53

Current date and time
Zulu (UTC)  07-Dec-2022 14:19:53
Local (UTC-6)  07-Dec-2022 08:19:53
 
METAR
KIKK 
9nm SE 
071355Z AUTO 00000KT 1 3/4SM BR OVC010 04/03 A3022 RMK AO2 T00400030
TAF
KGYY 
38nm NE 
071120Z 0712/0812 32005KT P6SM OVC010 TEMPO 0712/0714 3SM BR OVC007 FM071800 33007KT P6SM BKN015 FM072100 35006KT P6SM BKN025 FM080200 01005KT P6SM SCT010 BKN020
KMDW 
39nm N 
071158Z 0712/0818 32005KT 3SM BR SCT004 OVC010 TEMPO 0712/0714 2SM BR OVC004 FM071400 34005KT P6SM SCT006 OVC010 FM071800 33008KT P6SM BKN015 FM072200 35007KT P6SM BKN025 FM080200 01005KT P6SM SCT010 BKN020
KDPA 
47nm N 
071120Z 0712/0812 VRB03KT 1/2SM FG OVC003 TEMPO 0712/0714 1/4SM FG VV002 FM071500 33004KT 3SM BR OVC004 FM071800 32008KT P6SM BKN010 FM072100 35006KT P6SM BKN025 FM080200 01005KT P6SM SCT010 BKN020
NOTAMs
Click for the latest NOTAMs
NOTAMs are issued by the DoD/FAA and will open in a separate window not controlled by AirNav.

 

 
 

Would you like to see your business listed on this page?

 If your business provides an interesting product or service to pilots, flight crews, aircraft, or users of the Classic Landings Airport, you should consider listing it here.  To start the listing process, click on the button below
 
Add a business
 

Other Pages about Classic Landings Airport

Update a link
 
Copyright © AirNav, LLC. All rights reserved. Privacy Policy  Contact